Погода в Калининауле

Россия / Республика Дагестан     43°04′18″N   46°33′58″E
темп.,
°C
ветер,
м/с
пор.,
м/с
влажн.,
%
обл.,
%
осадки,
мм/ч
давл.,
гПа
погр.,
м
4 июля, пн
пн400:00+11юз487917 0.8 1017200
03:00+11юз48735 0.8 1017280
06:00+14зюз47695 0.1 1017550
09:00+18зсз574633 0.1 10171963
12:00+21зсз563718 0.0 10162336
15:00+22зсз453421 0.0 10152495
18:00+19зсз364633 0.0 1015779
21:00+14ююз34541 0.0 101776
5 июля, вт
вт500:00+13ююз44580 0.0 101745
03:00+13ююз44590 0.0 101649
06:00+16ююз33570 0.0 101666
09:00+21зсз34370 0.0 10161875
12:00+23зсз45336 0.0 10152346
15:00+24сз453480 0.0 10142749
18:00+19зюз245497 0.0 1014138
21:00+17ююз236381 0.2 101643
6 июля, ср
ср600:00+16ююз226515 0.1 101620
03:00+14ю32753 0.1 101630
06:00+17ююз11680 0.0 101649
09:00+21ссв325214 0.0 10161353
12:00+22св324487 0.1 10161788
15:00+24св33370 0.1 10141943
18:00+20в34600 0.0 1015434
21:00+14ююв22812 0.0 101726
7 июля, чт
чт700:00+14ююв217731 0.0 101620
03:00+13ююв22830 0.0 101524
06:00+16вюв12740 0.0 1015104
09:00+21ссв22550 0.0 1014911
12:00+25св33462 0.0 10121559
15:00+25всв334811 0.0 10101238
18:00+21ссв127243 1.3 1012234
21:00+16ююв11875 2.7 101312
8 июля, пт
пт800:00+15ююв118886 0.0 101311
03:00+14ююв118828 0.0 101214
06:00+16юв117835 0.0 101291
09:00+22ссв225749 0.0 1012845
12:00+25св224590 0.0 10101550
15:00+24вюв2248100 0.1 1010940
18:00+20юв2268100 0.4 1011101
21:00+17ю3278100 0.9 101229